[[[{"header":{"parameterUnit":"kt","parameterCategory":2,"dx":1,"dy":1,"la1":30.253999710083008,"la2":30.299108505249023,"lo1":-89.0895004272461,"lo2":-89.04439544677734,"nx":28,"ny":28,"refTime":"2022-09-24T21:00:00:Z","depth":0,"parameterNumber":1,"parameterNumberName":"U-component_of_WINDS"},"data":[0.7325,0.7426,0.7465,0.7599,0.7658,0.7757,0.7805,0.7872,0.7936,0.8061,0.814,0.8192,0.8274,0.838,0.8469,0.8491,0.8526,0.8532,0.8557,0.8492,0.8486,0.848,0.8458,0.8539,0.8539,0.8618,0.8618,0.8619,0.7271,0.7329,0.7411,0.7518,0.759,0.7607,0.7695,0.7754,0.7843,0.7923,0.8004,0.8118,0.8214,0.8296,0.8397,0.8447,0.8462,0.8471,0.8468,0.8481,0.8413,0.8389,0.8457,0.8457,0.8457,0.8457,0.8457,0.8457,0.7183,0.7243,0.733,0.7421,0.7486,0.7558,0.7622,0.7684,0.7767,0.7875,0.7909,0.8012,0.8101,0.8244,0.8303,0.8385,0.8384,0.8407,0.8414,0.8418,0.8417,0.8296,0.8405,0.8405,0.8405,0.8405,0.8405,0,0.7132,0.716,0.7243,0.7337,0.7406,0.7483,0.7562,0.7603,0.7682,0.7748,0.7847,0.7911,0.804,0.8139,0.8244,0.8301,0.833,0.8338,0.8354,0.8339,0.831,0.8326,0.8214,0.8335,0.8334,0.8334,0.8334,0.8334,0.7046,0.7111,0.7223,0.7276,0.7329,0.7413,0.7472,0.7537,0.7597,0.7705,0.7756,0.7856,0.794,0.8095,0.8171,0.8269,0.8284,0.8325,0.8299,0.828,0.8285,0.828,0.8287,0.8329,0.833,0.833,0.8331,0,0.6994,0.706,0.7174,0.728,0.7308,0.7374,0.7466,0.7529,0.7584,0.768,0.7706,0.7793,0.7891,0.7961,0.8089,0.8123,0.8235,0.8247,0.8203,0.8209,0.8253,0.8248,0.8385,0.8406,0.8323,0.8324,0.8325,0,0.6948,0.7031,0.7124,0.7187,0.7282,0.7345,0.7438,0.7495,0.7573,0.7649,0.7691,0.7762,0.7841,0.7923,0.7974,0.8078,0.8102,0.8134,0.8147,0.8131,0.8127,0.8166,0.8162,0.8173,0.8172,0.8172,0.8171,0,0.686,0.7008,0.7111,0.7155,0.7278,0.7325,0.7379,0.7468,0.7527,0.7614,0.7653,0.7751,0.7805,0.7882,0.7945,0.7925,0.8074,0.806,0.8108,0.8106,0.8138,0.8136,0.8238,0.817,0.817,0.817,0.8169,0,0.6833,0.6917,0.7056,0.7159,0.7196,0.7264,0.7363,0.7438,0.753,0.7565,0.7635,0.7673,0.7769,0.7749,0.7884,0.7839,0.7891,0.7931,0.7936,0.795,0.7925,0.7974,0.8064,0.8076,0.796,0.7959,0.7957,0,0.6714,0.6872,0.6926,0.7058,0.7141,0.7181,0.7259,0.7339,0.7393,0.7472,0.7533,0.7625,0.7625,0.7664,0.7721,0.7789,0.7847,0.7783,0.7901,0.7904,0.7874,0.7957,0.7953,0.8036,0.7936,0.7938,0.794,0,0.663,0.6777,0.6797,0.6851,0.6965,0.7036,0.7125,0.7228,0.7278,0.7364,0.7441,0.7573,0.7578,0.7642,0.7684,0.774,0.781,0.774,0.7743,0.775,0.7932,0.7927,0.794,0.7826,0.7828,0.7831,0.7923,0,0.6574,0.6662,0.6718,0.6836,0.6901,0.6988,0.7061,0.712,0.7152,0.7208,0.7324,0.7411,0.752,0.7554,0.7588,0.7694,0.7688,0.7693,0.7681,0.7735,0.7767,0.778,0.7626,0.7626,0.7626,0.7626,0,0,0.6445,0.6572,0.663,0.6719,0.6777,0.6819,0.6906,0.6969,0.7095,0.7136,0.7128,0.7326,0.7398,0.7532,0.7555,0.7599,0.7625,0.7605,0.7708,0.7717,0.7725,0.7759,0.7771,0.7626,0.7626,0.7626,0.7626,0,0.6439,0.6506,0.659,0.6657,0.6757,0.6812,0.6831,0.6941,0.698,0.7095,0.7131,0.721,0.7367,0.7438,0.7495,0.7589,0.7614,0.7617,0.7642,0.7706,0.7715,0.7723,0.7757,0.7768,0.7626,0.7626,0.7626,0,0.637,0.6449,0.6497,0.6631,0.6699,0.6784,0.6787,0.6877,0.6942,0.6988,0.7101,0.716,0.7262,0.7379,0.7435,0.7431,0.7599,0.756,0.7562,0.757,0.7636,0.7646,0.7656,0.7534,0.7533,0.7533,0,0,0.6356,0.6438,0.6544,0.6636,0.6675,0.6758,0.6811,0.6849,0.6937,0.6973,0.7049,0.7136,0.7229,0.7289,0.738,0.7498,0.7525,0.7545,0.755,0.7553,0.7563,0.763,0.764,0.753,0.753,0.753,0,0,0.6351,0.6475,0.6492,0.6607,0.6688,0.6801,0.6855,0.6879,0.6968,0.6966,0.7038,0.7065,0.7176,0.7234,0.7192,0.7377,0.7363,0.7374,0.7335,0.7342,0.7346,0.7331,0.721,0,0,0,0,0,0.6382,0.6459,0.6473,0.6503,0.6675,0.6792,0.6815,0.6874,0.6862,0.6903,0.6971,0.6994,0.7226,0.719,0.7221,0.7268,0.7499,0.7504,0.751,0.7487,0.7494,0.7499,0,0,0,0,0,0,0.6395,0.6431,0.6471,0.6585,0.6624,0.679,0.6782,0.68,0.6859,0.6861,0.698,0.6998,0.7053,0.7179,0.7205,0.7249,0.7201,0.7501,0.7506,0.751,0.749,0.7494,0.7499,0,0,0,0,0,0.6405,0.6435,0.6695,0.6585,0.6619,0.6716,0.678,0.6795,0.6842,0.6947,0.6966,0.6881,0.7052,0.7079,0.7195,0.7235,0.7183,0.7193,0.7504,0.7508,0.7511,0.7492,0,0,0,0,0,0,0.6413,0.6451,0.6703,0.6716,0.656,0.6708,0.6732,0.679,0.6925,0.6944,0.6851,0.6852,0.7053,0.7074,0.7094,0.7226,0.7169,0.7179,0.7185,0.7507,0.751,0.7512,0,0,0,0,0,0,0.6435,0.6461,0.671,0.6675,0.6684,0.67,0.6722,0.683,0.6927,0.6822,0.6827,0.685,0.7023,0.707,0.7086,0.7253,0.7157,0.7167,0.7173,0.7177,0.7509,0.7512,0,0,0,0,0,0,0.6447,0.647,0.6672,0.6679,0.6687,0.6835,0.6797,0.6971,0.6893,0.6816,0.6888,0.6886,0.702,0.7037,0.708,0.724,0.7249,0.7158,0.7164,0.7169,0.7172,0,0,0,0,0,0,0,0.6457,0.6293,0.6627,0.6683,0.669,0.6834,0.6837,0.6841,0.6892,0.689,0.6888,0.6887,0.7103,0.7114,0.7124,0.723,0,0,0.7157,0.7161,0,0,0,0,0,0,0,0,0.6285,0.6291,0.6627,0.663,0.6633,0.6834,0.6837,0.684,0.6892,0.689,0.6889,0.6887,0.7106,0.7114,0.7123,0,0,0,0,0,0,0,0,0,0,0,0,0,0,0,0.6628,0.663,0,0.6834,0.6837,0.6839,0.6892,0.689,0.6889,0.6888,0.7108,0.7115,0.7122,0,0,0,0,0,0,0,0,0,0,0,0,0,0,0,0,0,0,0,0,0,0,0,0,0,0,0,0,0,0,0,0,0,0,0,0,0,0,0,0,0,0,0,0,0,0,0,0,0,0,0,0,0,0,0,0,0,0,0,0,0,0,0,0,0,0,0,0,0]}],[{"header":{"parameterUnit":"kt","parameterCategory":2,"dx":1,"dy":1,"la1":30.253999710083008,"la2":30.299108505249023,"lo1":-89.0895004272461,"lo2":-89.04439544677734,"nx":28,"ny":28,"refTime":"2022-09-24T21:00:00:Z","depth":0,"parameterNumber":2,"parameterNumberName":"V-component_of_WINDS"},"data":[4.4999,4.5068,4.5071,4.515,4.5167,4.522,4.5241,4.5267,4.5289,4.5352,4.5389,4.5401,4.5424,4.5467,4.5506,4.551,4.5524,4.5541,4.5542,4.5464,4.5453,4.5443,4.5425,4.5546,4.5546,4.5621,4.5622,4.5622,4.4923,4.494,4.4986,4.5033,4.507,4.5054,4.509,4.5122,4.5171,4.5202,4.5241,4.5298,4.5344,4.5364,4.5408,4.5436,4.5431,4.5447,4.5443,4.5446,4.5363,4.5345,4.5449,4.5449,4.5449,4.5449,4.5449,4.5449,4.4784,4.4828,4.486,4.4911,4.4937,4.4969,4.501,4.5026,4.5072,4.5122,4.5123,4.518,4.5211,4.5272,4.5294,4.5336,4.532,4.534,4.5344,4.5347,4.5347,4.5222,4.5346,4.5345,4.5345,4.5345,4.5345,0,4.4684,4.4684,4.4733,4.478,4.4819,4.4858,4.4895,4.4922,4.4932,4.497,4.5024,4.5057,4.5121,4.5172,4.5218,4.5239,4.5227,4.5231,4.5243,4.5239,4.5226,4.5226,4.5083,4.5227,4.5226,4.5226,4.5225,4.5225,4.4537,4.4593,4.4635,4.4667,4.4691,4.4746,4.4779,4.4785,4.482,4.4867,4.4906,4.4959,4.5003,4.5091,4.5111,4.516,4.5155,4.5206,4.5162,4.5154,4.5146,4.5141,4.5142,4.5214,4.5216,4.5217,4.5218,0,4.4452,4.4467,4.4556,4.4596,4.4607,4.4664,4.4696,4.4742,4.4756,4.4821,4.4836,4.4859,4.4914,4.4928,4.4997,4.5001,4.5082,4.508,4.5066,4.5064,4.5107,4.51,4.526,4.5278,4.516,4.5161,4.5162,0,4.433,4.4406,4.4422,4.4475,4.4555,4.4562,4.4641,4.4662,4.4696,4.4748,4.474,4.4788,4.4801,4.485,4.4858,4.4928,4.4944,4.495,4.495,4.4948,4.4946,4.4965,4.4956,4.496,4.4959,4.4958,4.4958,0,4.4191,4.4296,4.4381,4.4407,4.4461,4.45,4.4524,4.4566,4.4601,4.465,4.4671,4.4729,4.4759,4.48,4.481,4.4778,4.49,4.4859,4.4905,4.4904,4.493,4.4928,4.5068,4.4957,4.4957,4.4956,4.4956,0,4.4096,4.4149,4.4275,4.4317,4.4345,4.4404,4.4459,4.4515,4.4559,4.4569,4.4609,4.4607,4.4678,4.4633,4.4727,4.4681,4.4709,4.4723,4.4727,4.4732,4.4681,4.475,4.4887,4.4898,4.4735,4.4733,4.4732,0,4.3925,4.4062,4.4072,4.4194,4.4258,4.4244,4.4309,4.4352,4.4372,4.4427,4.4448,4.4514,4.4486,4.4508,4.4553,4.4577,4.4637,4.4571,4.464,4.4642,4.4621,4.4748,4.4763,4.4856,4.4709,4.4712,4.4713,0,4.3798,4.3871,4.3894,4.3922,4.3986,4.4045,4.4122,4.419,4.4225,4.4281,4.434,4.4439,4.4417,4.4459,4.4467,4.4513,4.4597,4.4486,4.4487,4.4498,4.4703,4.4714,4.473,4.459,4.4593,4.4595,4.4695,0,4.3631,4.3709,4.3772,4.3848,4.3897,4.3981,4.4004,4.405,4.4051,4.4073,4.4168,4.4217,4.4289,4.4317,4.4323,4.4427,4.4412,4.4393,4.435,4.4436,4.4468,4.4483,4.4298,4.4296,4.4296,4.4295,0,0,4.346,4.3574,4.359,4.367,4.3711,4.3702,4.3787,4.3828,4.3913,4.3939,4.3916,4.4062,4.4105,4.4217,4.4246,4.4281,4.4298,4.4272,4.4397,4.4408,4.4418,4.4453,4.4468,4.4293,4.4293,4.4293,4.4292,0,4.3405,4.3454,4.3543,4.3585,4.365,4.3672,4.3692,4.3757,4.3776,4.3877,4.3867,4.3928,4.4054,4.4094,4.4131,4.4258,4.4247,4.428,4.4335,4.4387,4.4399,4.441,4.4447,4.4461,4.429,4.429,4.429,0,4.3276,4.3325,4.3374,4.3479,4.3523,4.3596,4.3555,4.364,4.3692,4.3683,4.3783,4.3815,4.3877,4.3987,4.4038,4.4018,4.4198,4.4152,4.4158,4.4164,4.4215,4.423,4.4243,4.4065,4.4065,4.4064,0,0,4.3225,4.3302,4.3361,4.347,4.3497,4.3534,4.3579,4.3588,4.3647,4.367,4.3712,4.3767,4.3837,4.3885,4.3954,4.4074,4.4084,4.4123,4.4134,4.4142,4.4152,4.4205,4.422,4.406,4.406,4.406,0,0,4.3202,4.3274,4.3268,4.3398,4.3453,4.352,4.3583,4.3576,4.3643,4.3637,4.3657,4.3673,4.3778,4.3812,4.3762,4.3938,4.3896,4.3909,4.3913,4.3926,4.3937,4.3925,4.3729,0,0,0,0,0,4.3161,4.3264,4.3258,4.3284,4.3422,4.3523,4.354,4.356,4.3525,4.3573,4.3606,4.3597,4.3786,4.3743,4.3767,4.3823,4.4016,4.4024,4.4031,4.4065,4.4079,4.4091,0,0,0,0,0,0,4.3171,4.3203,4.3255,4.3326,4.3357,4.3519,4.3465,4.3473,4.3521,4.3517,4.359,4.3599,4.3617,4.3731,4.3753,4.3806,4.3722,4.4019,4.4026,4.4032,4.407,4.4081,4.4091,0,0,0,0,0,4.3179,4.3205,4.3424,4.3324,4.3351,4.3401,4.3462,4.3468,4.3505,4.3561,4.3569,4.3516,4.3618,4.3638,4.3745,4.3795,4.3707,4.3715,4.4023,4.4029,4.4033,4.4075,0,0,0,0,0,0,4.3186,4.3211,4.3429,4.3438,4.3289,4.3392,4.341,4.3464,4.3546,4.3556,4.3487,4.3483,4.3621,4.3635,4.3651,4.379,4.3694,4.3703,4.3708,4.4027,4.4032,4.4035,0,0,0,0,0,0,4.3197,4.3219,4.3434,4.3388,4.3392,4.3384,4.34,4.3496,4.3547,4.3468,4.3467,4.3484,4.3597,4.3634,4.3646,4.3795,4.3685,4.3693,4.3698,4.3702,4.4031,4.4034,0,0,0,0,0,0,4.3207,4.3225,4.3386,4.3389,4.3392,4.3492,4.3469,4.361,4.3509,4.3464,4.35,4.3496,4.3596,4.3608,4.3643,4.3787,4.3793,4.3685,4.3691,4.3694,4.3697,0,0,0,0,0,0,0,4.3214,4.3087,4.3377,4.339,4.3392,4.3519,4.3522,4.3524,4.3508,4.3505,4.3501,4.3498,4.364,4.3648,4.3657,4.378,0,0,4.3684,4.3688,0,0,0,0,0,0,0,0,4.3079,4.3085,4.3377,4.3379,4.3381,4.352,4.3522,4.3524,4.3507,4.3505,4.3502,4.3499,4.3642,4.3649,4.3656,0,0,0,0,0,0,0,0,0,0,0,0,0,0,0,4.3378,4.3379,0,4.352,4.3522,4.3523,4.3507,4.3505,4.3503,4.35,4.3644,4.365,4.3656,0,0,0,0,0,0,0,0,0,0,0,0,0,0,0,0,0,0,0,0,0,0,0,0,0,0,0,0,0,0,0,0,0,0,0,0,0,0,0,0,0,0,0,0,0,0,0,0,0,0,0,0,0,0,0,0,0,0,0,0,0,0,0,0,0,0,0,0,0]}]]]